This is the latest recevied weather packets stored in our database for station/object K5OBH. If no packets are shown the sender has not sent any weather packets the latest 10 day(s).
| Time | Temp. | Humidity | Pressure | Rain* | Wind** | Luminosity | Snow |
|---|---|---|---|---|---|---|---|
| 1778010886 | 12.78° C | 80% | 1007.8 hPa | 0 mm | - | 158 W/m² | - |
| 1778010583 | 12.22° C | 81% | 1007.5 hPa | 0 mm | - | 206 W/m² | - |
| 1778010280 | 12.22° C | 82% | 1007.8 hPa | 0 mm | - | 184 W/m² | - |
| 1778009980 | 12.78° C | 82% | 1007.9 hPa | 0 mm | - | 163 W/m² | - |
| 1778009678 | 12.78° C | 82% | 1007.6 hPa | 0 mm | - | 178 W/m² | - |
| 1778009376 | 12.78° C | 83% | 1007.6 hPa | 0 mm | - | 171 W/m² | - |
| 1778009074 | 12.78° C | 83% | 1007.9 hPa | 0 mm | - | 157 W/m² | - |
| 1778008771 | 12.78° C | 82% | 1007.6 hPa | 0 mm | - | 144 W/m² | - |
| 1778008470 | 12.78° C | 83% | 1007.9 hPa | 0 mm | - | 141 W/m² | - |
| 1778008166 | 13.33° C | 83% | 1007.8 hPa | 0 mm | - | 137 W/m² | - |
| 1778007861 | 13.33° C | 83% | 1007.8 hPa | 0 mm | - | 153 W/m² | - |
| 1778007557 | 13.33° C | 82% | 1007.7 hPa | 0 mm | - | 164 W/m² | - |
| 1778007255 | 13.33° C | 82% | 1007.4 hPa | 0 mm | - | 168 W/m² | - |
| 1778006950 | 13.89° C | 81% | 1007 hPa | 0 mm | - | 206 W/m² | - |
| 1778006647 | 13.89° C | 81% | 1007.2 hPa | 0 mm | - | 232 W/m² | - |
| 1778006345 | 13.89° C | 81% | 1007.4 hPa | 0 mm | - | 295 W/m² | - |
| 1778006041 | 13.89° C | 81% | 1007.5 hPa | 0 mm | - | 288 W/m² | - |
| 1778005737 | 13.89° C | 81% | 1007.4 hPa | 0 mm | - | 201 W/m² | - |
| 1778005435 | 13.89° C | 80% | 1007.4 hPa | 0 mm | - | 203 W/m² | - |
| 1778005131 | 13.89° C | 82% | 1007.1 hPa | 0 mm | - | 167 W/m² | - |
| 1778004829 | 13.89° C | 82% | 1007.2 hPa | 0 mm | - | 145 W/m² | - |
| 1778004525 | 13.89° C | 82% | 1007.1 hPa | 0 mm | - | 154 W/m² | - |
| 1778004221 | 13.89° C | 83% | 1007.1 hPa | 0 mm | - | 162 W/m² | - |
| 1778003918 | 13.89° C | 83% | 1006.9 hPa | 0 mm | - | 160 W/m² | - |
| 1778003615 | 13.89° C | 83% | 1006.9 hPa | 0 mm | - | 198 W/m² | - |
* Rain latest hour (hover to see other rain measurements)
** Current wind speed in m/s (hover to see current wind gust speed)